| time (UTC) | temp F | wind direction | speed MPH | gust MPH | rain 1hr in | rain 24hr in | rain mn in | humidity % | barometer mb |
| 20260510054556 | 76 | 155 | 7.0 | 8.0 | 0.00 | 0.00 | 0.00 | 91 | 1008.0 |
| 20260510054056 | 77 | 135 | 6.0 | 12.0 | 0.00 | 0.00 | 0.00 | 91 | 1008.0 |
| 20260510053557 | 77 | 106 | 3.0 | 11.0 | 0.00 | 0.00 | 0.00 | 91 | 1009.0 |
| 20260510053056 | 77 | 154 | 5.0 | 7.0 | 0.00 | 0.00 | 0.00 | 91 | 1008.0 |
| 20260510052556 | 76 | 120 | 9.0 | 10.0 | 0.00 | 0.00 | 0.00 | 91 | 1009.0 |
| 20260510052057 | 76 | 97 | 5.0 | 7.0 | 0.00 | 0.00 | 0.00 | 91 | 1009.0 |
| 20260510051556 | 76 | 107 | 4.0 | 7.0 | 0.00 | 0.00 | 0.00 | 91 | 1009.0 |
| 20260510051056 | 76 | 176 | 5.0 | 10.0 | 0.00 | 0.00 | 0.00 | 91 | 1009.0 |
| 20260510050556 | 77 | 147 | 3.0 | 9.0 | 0.00 | 0.00 | 0.00 | 91 | 1009.0 |
| 20260510050056 | 77 | 89 | 5.0 | 7.0 | 0.00 | 0.00 | 0.00 | 91 | 1009.0 |
| 20260510045556 | 77 | 150 | 6.0 | 7.0 | 0.00 | 0.00 | 0.00 | 91 | 1009.0 |
| 20260510045056 | 77 | 54 | 4.0 | 9.0 | 0.00 | 0.00 | 0.00 | 92 | 1009.0 |
| 20260510044556 | 77 | 113 | 6.0 | 11.0 | 0.00 | 0.00 | 0.00 | 92 | 1009.0 |
| 20260510044056 | 77 | 107 | 5.0 | 8.0 | 0.00 | 0.00 | 0.00 | 92 | 1009.0 |
| 20260510043556 | 77 | 97 | 7.0 | 12.0 | 0.00 | 0.00 | 0.00 | 92 | 1009.0 |
| 20260510043056 | 77 | 115 | 2.0 | 11.0 | 0.00 | 0.00 | 0.00 | 92 | 1009.0 |
| 20260510042556 | 77 | 76 | 4.0 | 8.0 | 0.00 | 0.00 | 0.00 | 92 | 1009.0 |
| 20260510042057 | 77 | 88 | 3.0 | 7.0 | 0.00 | 0.00 | 0.00 | 92 | 1009.0 |
| 20260510041556 | 77 | 98 | 5.0 | 9.0 | 0.00 | 0.00 | 0.00 | 92 | 1009.0 |
| 20260510041057 | 77 | 92 | 7.0 | 9.0 | 0.00 | 0.00 | 0.00 | 92 | 1009.0 |
| 20260510040557 | 77 | 105 | 8.0 | 9.0 | 0.00 | 0.00 | 0.00 | 92 | 1009.0 |
| 20260510040056 | 77 | 112 | 3.0 | 8.0 | 0.00 | 0.00 | 0.00 | 92 | 1009.0 |
| 20260510035557 | 77 | 128 | 5.0 | 7.0 | 0.00 | 0.00 | 0.00 | 92 | 1009.0 |
| 20260510035056 | 77 | 63 | 5.0 | 7.0 | 0.00 | 0.00 | 0.00 | 91 | 1009.0 |
| 20260510034556 | 77 | 80 | 3.0 | 4.0 | 0.00 | 0.00 | 0.00 | 91 | 1009.0 |
| 20260510034056 | 77 | 109 | 7.0 | 7.0 | 0.00 | 0.00 | 0.00 | 90 | 1009.0 |
| 20260510033556 | 77 | 120 | 3.0 | 8.0 | 0.00 | 0.00 | 0.00 | 90 | 1009.0 |
| 20260510033056 | 77 | 109 | 6.0 | 10.0 | 0.00 | 0.00 | 0.00 | 90 | 1009.0 |
| 20260510032556 | 78 | 134 | 9.0 | 11.0 | 0.00 | 0.00 | 0.00 | 90 | 1009.0 |
| 20260510032056 | 78 | 98 | 4.0 | 9.0 | 0.00 | 0.00 | 0.00 | 89 | 1009.0 |
| 20260510031600 | 78 | 114 | 8.0 | 13.0 | 0.00 | 0.00 | 0.00 | 89 | 1009.0 |
| 20260510031056 | 78 | 99 | 11.0 | 11.0 | 0.00 | 0.00 | 0.00 | 89 | 1009.0 |
| 20260510030556 | 78 | 72 | 3.0 | 9.0 | 0.00 | 0.00 | 0.00 | 88 | 1009.0 |
| 20260510030057 | 78 | 82 | 3.0 | 13.0 | 0.00 | 0.00 | 0.00 | 87 | 1009.0 |
| 20260510025556 | 78 | 84 | 7.0 | 9.0 | 0.00 | 0.00 | 0.00 | 87 | 1009.0 |
| 20260510025056 | 79 | 97 | 5.0 | 9.0 | 0.00 | 0.00 | 0.00 | 86 | 1009.0 |
| 20260510024556 | 79 | 93 | 5.0 | 6.0 | 0.00 | 0.00 | 0.00 | 86 | 1009.0 |
| 20260510024056 | 79 | 131 | 3.0 | 5.0 | 0.00 | 0.00 | 0.00 | 85 | 1008.0 |
| 20260510023556 | 80 | 64 | 6.0 | 13.0 | 0.00 | 0.00 | 0.00 | 84 | 1008.0 |
| 20260510023057 | 80 | 111 | 4.0 | 9.0 | 0.00 | 0.00 | 0.00 | 82 | 1008.0 |
| 20260510022557 | 80 | 111 | 8.0 | 13.0 | 0.00 | 0.00 | 0.00 | 81 | 1008.0 |
| 20260510022056 | 80 | 119 | 7.0 | 7.0 | 0.00 | 0.00 | 0.00 | 76 | 1008.0 |
| 20260510021556 | 80 | 97 | 5.0 | 6.0 | 0.00 | 0.00 | 0.00 | 75 | 1008.0 |
| 20260510021056 | 80 | 102 | 5.0 | 11.0 | 0.00 | 0.00 | 0.00 | 74 | 1008.0 |
| 20260510020557 | 81 | 104 | 6.0 | 9.0 | 0.00 | 0.00 | 0.00 | 74 | 1008.0 |
| 20260510020056 | 81 | 145 | 3.0 | 14.0 | 0.00 | 0.00 | 0.00 | 74 | 1007.0 |
| 20260510015556 | 81 | 122 | 3.0 | 8.0 | 0.00 | 0.00 | 0.00 | 74 | 1007.0 |
| 20260510015056 | 81 | 154 | 7.0 | 11.0 | 0.00 | 0.00 | 0.00 | 74 | 1007.0 |
| 20260510014556 | 81 | 157 | 5.0 | 10.0 | 0.00 | 0.00 | 0.00 | 74 | 1007.0 |
| 20260510014057 | 81 | 137 | 5.0 | 9.0 | 0.00 | 0.00 | 0.00 | 73 | 1007.0 |
| 20260510013556 | 82 | 155 | 5.0 | 11.0 | 0.00 | 0.00 | 0.00 | 72 | 1007.0 |
| 20260510013059 | 82 | 113 | 8.0 | 13.0 | 0.00 | 0.00 | 0.00 | 71 | 1007.0 |
| 20260510012556 | 82 | 130 | 3.0 | 6.0 | 0.00 | 0.00 | 0.00 | 68 | 1006.0 |
| 20260510012056 | 82 | 152 | 6.0 | 8.0 | 0.00 | 0.00 | 0.00 | 67 | 1007.0 |
| 20260510011556 | 83 | 153 | 3.0 | 9.0 | 0.00 | 0.00 | 0.00 | 66 | 1007.0 |
| 20260510011057 | 83 | 134 | 6.0 | 11.0 | 0.00 | 0.00 | 0.00 | 65 | 1006.0 |
| 20260510010556 | 83 | 146 | 9.0 | 16.0 | 0.00 | 0.00 | 0.00 | 63 | 1006.0 |
| 20260510010056 | 84 | 135 | 5.0 | 16.0 | 0.00 | 0.00 | 0.00 | 62 | 1006.0 |
| 20260510005557 | 85 | 155 | 2.0 | 11.0 | 0.00 | 0.00 | 0.00 | 58 | 1006.0 |
| 20260510005056 | 85 | 174 | 1.0 | 5.0 | 0.00 | 0.00 | 0.00 | 55 | 1006.0 |
| 20260510004556 | 85 | 140 | 2.0 | 11.0 | 0.00 | 0.00 | 0.00 | 53 | 1006.0 |
| 20260510004056 | 86 | 164 | 1.0 | 7.0 | 0.00 | 0.00 | 0.00 | 52 | 1006.0 |
| 20260510003556 | 86 | 143 | 6.0 | 11.0 | 0.00 | 0.00 | 0.00 | 50 | 1006.0 |
| 20260510003056 | 86 | 137 | 11.0 | 11.0 | 0.00 | 0.00 | 0.00 | 49 | 1006.0 |
| 20260510002556 | 86 | 138 | 6.0 | 11.0 | 0.00 | 0.00 | 0.00 | 49 | 1006.0 |
| 20260510002056 | 86 | 134 | 5.0 | 9.0 | 0.00 | 0.00 | 0.00 | 54 | 1006.0 |
| 20260510001556 | 87 | 148 | 6.0 | 6.0 | 0.00 | 0.00 | 0.00 | 57 | 1006.0 |
| 20260510001056 | 87 | 143 | 5.0 | 9.0 | 0.00 | 0.00 | 0.00 | 57 | 1006.0 |
| 20260510000557 | 87 | 99 | 4.0 | 6.0 | 0.00 | 0.00 | 0.00 | 56 | 1006.0 |
| 20260510000056 | 87 | 150 | 6.0 | 12.0 | 0.00 | 0.00 | 0.00 | 55 | 1005.0 |
| 20260509235557 | 88 | 147 | 5.0 | 9.0 | 0.00 | 0.00 | 0.00 | 55 | 1005.0 |
| 20260509235056 | 87 | 154 | 9.0 | 10.0 | 0.00 | 0.00 | 0.00 | 58 | 1005.0 |
| 20260509234556 | 88 | 89 | 6.0 | 11.0 | 0.00 | 0.00 | 0.00 | 61 | 1005.0 |
| 20260509234059 | 89 | 129 | 2.0 | 6.0 | 0.00 | 0.00 | 0.00 | 58 | 1005.0 |
| 20260509233556 | 90 | 108 | 2.0 | 6.0 | 0.00 | 0.00 | 0.00 | 52 | 1005.0 |
| 20260509233056 | 90 | 151 | 6.0 | 8.0 | 0.00 | 0.00 | 0.00 | 52 | 1005.0 |
| 20260509232556 | 91 | 188 | 1.0 | 7.0 | 0.00 | 0.00 | 0.00 | 52 | 1005.0 |
| 20260509232056 | 91 | 139 | 5.0 | 5.0 | 0.00 | 0.00 | 0.00 | 51 | 1005.0 |
| 20260509231556 | 91 | 206 | 1.0 | 3.0 | 0.00 | 0.00 | 0.00 | 53 | 1005.0 |
| 20260509231056 | 91 | 210 | 1.0 | 3.0 | 0.00 | 0.00 | 0.00 | 52 | 1005.0 |
| 20260509230555 | 91 | 157 | 3.0 | 5.0 | 0.00 | 0.00 | 0.00 | 51 | 1005.0 |
| 20260509230056 | 92 | 132 | 6.0 | 10.0 | 0.00 | 0.00 | 0.00 | 51 | 1005.0 |
| 20260509225556 | 93 | 165 | 2.0 | 6.0 | 0.00 | 0.00 | 0.00 | 50 | 1005.0 |
| 20260509225057 | 92 | 254 | 1.0 | 3.0 | 0.00 | 0.00 | 0.00 | 50 | 1005.0 |
| 20260509224556 | 93 | 145 | 6.0 | 9.0 | 0.00 | 0.00 | 0.00 | 49 | 1005.0 |
| 20260509224056 | 92 | 204 | 0.0 | 5.0 | 0.00 | 0.00 | 0.00 | 50 | 1005.0 |
| 20260509223557 | 93 | 229 | 0.0 | 4.0 | 0.00 | 0.00 | 0.00 | 47 | 1005.0 |
| 20260509223056 | 93 | 236 | 2.0 | 9.0 | 0.00 | 0.00 | 0.00 | 49 | 1005.0 |
| 20260509222556 | 93 | 181 | 1.0 | 5.0 | 0.00 | 0.00 | 0.00 | 47 | 1005.0 |
| 20260509222056 | 93 | 101 | 2.0 | 4.0 | 0.00 | 0.00 | 0.00 | 46 | 1005.0 |
| 20260509221556 | 94 | 207 | 3.0 | 5.0 | 0.00 | 0.00 | 0.00 | 47 | 1005.0 |
| 20260509221056 | 93 | 239 | 1.0 | 3.0 | 0.00 | 0.00 | 0.00 | 48 | 1005.0 |
| 20260509220556 | 92 | 199 | 3.0 | 5.0 | 0.00 | 0.00 | 0.00 | 49 | 1005.0 |
| 20260509220057 | 93 | 149 | 3.0 | 5.0 | 0.00 | 0.00 | 0.00 | 48 | 1005.0 |
| 20260509215556 | 93 | 196 | 0.0 | 3.0 | 0.00 | 0.00 | 0.00 | 48 | 1005.0 |
| 20260509215056 | 94 | 202 | 2.0 | 3.0 | 0.00 | 0.00 | 0.00 | 47 | 1005.0 |
| 20260509214558 | 94 | 133 | 2.0 | 4.0 | 0.00 | 0.00 | 0.00 | 47 | 1005.0 |
| 20260509214056 | 94 | 230 | 3.0 | 10.0 | 0.00 | 0.00 | 0.00 | 46 | 1005.0 |
| 20260509213557 | 93 | 335 | 2.0 | 3.0 | 0.00 | 0.00 | 0.00 | 46 | 1005.0 |
| 20260509213056 | 93 | 73 | 2.0 | 4.0 | 0.00 | 0.00 | 0.00 | 46 | 1005.0 |
| 20260509212556 | 92 | 306 | 1.0 | 4.0 | 0.00 | 0.00 | 0.00 | 46 | 1005.0 |
| 20260509212056 | 93 | 280 | 3.0 | 6.0 | 0.00 | 0.00 | 0.00 | 47 | 1005.0 |
| 20260509211556 | 93 | 226 | 2.0 | 8.0 | 0.00 | 0.00 | 0.00 | 45 | 1005.0 |
| 20260509211056 | 93 | 168 | 1.0 | 3.0 | 0.00 | 0.00 | 0.00 | 46 | 1005.0 |
| 20260509210556 | 93 | 198 | 2.0 | 3.0 | 0.00 | 0.00 | 0.00 | 45 | 1005.0 |
| 20260509210057 | 92 | 189 | 3.0 | 6.0 | 0.00 | 0.00 | 0.00 | 48 | 1005.0 |
| 20260509205557 | 92 | 273 | 2.0 | 6.0 | 0.00 | 0.00 | 0.00 | 47 | 1005.0 |
| 20260509205056 | 93 | 247 | 4.0 | 9.0 | 0.00 | 0.00 | 0.00 | 46 | 1005.0 |
| 20260509204556 | 93 | 229 | 3.0 | 6.0 | 0.00 | 0.00 | 0.00 | 47 | 1005.0 |
| 20260509204056 | 92 | 242 | 2.0 | 7.0 | 0.00 | 0.00 | 0.00 | 49 | 1005.0 |
| 20260509203556 | 91 | 103 | 0.0 | 4.0 | 0.00 | 0.00 | 0.00 | 49 | 1005.0 |
| 20260509203056 | 93 | 178 | 2.0 | 8.0 | 0.00 | 0.00 | 0.00 | 48 | 1005.0 |
| 20260509202557 | 92 | 253 | 3.0 | 8.0 | 0.00 | 0.00 | 0.00 | 49 | 1005.0 |
| 20260509202056 | 91 | 220 | 0.0 | 2.0 | 0.00 | 0.00 | 0.00 | 50 | 1005.0 |
| 20260509201557 | 91 | 96 | 2.0 | 3.0 | 0.00 | 0.00 | 0.00 | 50 | 1005.0 |
| 20260509201058 | 91 | 182 | 1.0 | 4.0 | 0.00 | 0.00 | 0.00 | 50 | 1005.0 |
| 20260509200557 | 90 | 60 | 0.0 | 3.0 | 0.00 | 0.00 | 0.00 | 50 | 1006.0 |
| 20260509200056 | 90 | 337 | 1.0 | 3.0 | 0.00 | 0.00 | 0.00 | 51 | 1006.0 |
| 20260509195556 | 89 | 267 | 5.0 | 6.0 | 0.00 | 0.00 | 0.00 | 53 | 1006.0 |
| 20260509195056 | 90 | 259 | 5.0 | 9.0 | 0.00 | 0.00 | 0.00 | 54 | 1006.0 |
| 20260509194556 | 89 | 312 | 0.0 | 4.0 | 0.00 | 0.00 | 0.00 | 54 | 1006.0 |
| 20260509194056 | 89 | 261 | 4.0 | 4.0 | 0.00 | 0.00 | 0.00 | 55 | 1006.0 |
| 20260509193557 | 89 | 315 | 4.0 | 5.0 | 0.00 | 0.00 | 0.00 | 54 | 1006.0 |
| 20260509193057 | 90 | 244 | 7.0 | 8.0 | 0.00 | 0.00 | 0.00 | 54 | 1006.0 |
| 20260509192556 | 90 | 341 | 2.0 | 4.0 | 0.00 | 0.00 | 0.00 | 55 | 1006.0 |
| 20260509192056 | 90 | 287 | 3.0 | 4.0 | 0.00 | 0.00 | 0.00 | 57 | 1006.0 |
| 20260509191556 | 89 | 282 | 1.0 | 4.0 | 0.00 | 0.00 | 0.00 | 58 | 1006.0 |
| 20260509191056 | 89 | 268 | 4.0 | 6.0 | 0.00 | 0.00 | 0.00 | 56 | 1006.0 |
| 20260509190556 | 89 | 312 | 5.0 | 5.0 | 0.00 | 0.00 | 0.00 | 56 | 1006.0 |
| 20260509190056 | 89 | 263 | 2.0 | 3.0 | 0.00 | 0.00 | 0.00 | 57 | 1006.0 |
| 20260509185556 | 89 | 247 | 5.0 | 9.0 | 0.00 | 0.00 | 0.00 | 56 | 1006.0 |
| 20260509185056 | 89 | 247 | 6.0 | 8.0 | 0.00 | 0.00 | 0.00 | 57 | 1006.0 |
| 20260509184557 | 89 | 210 | 0.0 | 7.0 | 0.00 | 0.00 | 0.00 | 58 | 1006.0 |
| 20260509184056 | 89 | 258 | 2.0 | 5.0 | 0.00 | 0.00 | 0.00 | 61 | 1006.0 |
| 20260509183557 | 88 | 251 | 3.0 | 4.0 | 0.00 | 0.00 | 0.00 | 61 | 1006.0 |
| 20260509183056 | 87 | 239 | 2.0 | 3.0 | 0.00 | 0.00 | 0.00 | 63 | 1006.0 |
| 20260509182556 | 86 | 207 | 3.0 | 5.0 | 0.00 | 0.00 | 0.00 | 62 | 1006.0 |
| 20260509182056 | 86 | 258 | 6.0 | 7.0 | 0.00 | 0.00 | 0.00 | 64 | 1007.0 |
| 20260509181556 | 87 | 256 | 7.0 | 8.0 | 0.00 | 0.00 | 0.00 | 64 | 1007.0 |
| 20260509181057 | 86 | 289 | 1.0 | 3.0 | 0.00 | 0.00 | 0.00 | 66 | 1007.0 |
| 20260509180556 | 86 | 2 | 3.0 | 3.0 | 0.00 | 0.00 | 0.00 | 67 | 1007.0 |
| 20260509180056 | 85 | 259 | 3.0 | 4.0 | 0.00 | 0.00 | 0.00 | 68 | 1007.0 |
| 20260509175556 | 85 | 342 | 2.0 | 5.0 | 0.00 | 0.00 | 0.00 | 69 | 1007.0 |
| 20260509175057 | 85 | 247 | 5.0 | 6.0 | 0.00 | 0.00 | 0.00 | 70 | 1007.0 |
| 20260509174556 | 85 | 135 | 0.0 | 3.0 | 0.00 | 0.00 | 0.00 | 72 | 1007.0 |
| 20260509174056 | 85 | 250 | 2.0 | 5.0 | 0.00 | 0.00 | 0.00 | 72 | 1008.0 |
| 20260509173556 | 84 | 266 | 0.0 | 3.0 | 0.00 | 0.00 | 0.00 | 73 | 1008.0 |
| 20260509173057 | 83 | 228 | 1.0 | 6.0 | 0.00 | 0.00 | 0.00 | 75 | 1008.0 |
| 20260509172557 | 83 | 275 | 0.0 | 3.0 | 0.00 | 0.00 | 0.00 | 76 | 1008.0 |
| 20260509172056 | 83 | 271 | 3.0 | 5.0 | 0.00 | 0.00 | 0.00 | 75 | 1008.0 |
| 20260509171557 | 83 | 208 | 2.0 | 4.0 | 0.00 | 0.00 | 0.00 | 76 | 1008.0 |
| 20260509171058 | 83 | 319 | 1.0 | 4.0 | 0.00 | 0.00 | 0.00 | 76 | 1008.0 |
| 20260509170556 | 83 | 249 | 4.0 | 5.0 | 0.00 | 0.00 | 0.00 | 76 | 1008.0 |
| 20260509170056 | 83 | 229 | 2.0 | 3.0 | 0.00 | 0.00 | 0.00 | 77 | 1008.0 |
| 20260509165556 | 82 | 219 | 3.0 | 7.0 | 0.00 | 0.00 | 0.00 | 78 | 1008.0 |
| 20260509165056 | 83 | 230 | 3.0 | 7.0 | 0.00 | 0.00 | 0.00 | 77 | 1008.0 |
| 20260509164557 | 83 | 228 | 1.0 | 5.0 | 0.00 | 0.00 | 0.00 | 78 | 1008.0 |
| 20260509164056 | 83 | 236 | 1.0 | 2.0 | 0.00 | 0.00 | 0.00 | 78 | 1008.0 |
| 20260509163556 | 83 | 226 | 1.0 | 8.0 | 0.00 | 0.00 | 0.00 | 77 | 1008.0 |
| 20260509163057 | 83 | 220 | 0.0 | 3.0 | 0.00 | 0.00 | 0.00 | 77 | 1008.0 |
| 20260509162556 | 84 | 185 | 3.0 | 5.0 | 0.00 | 0.00 | 0.00 | 77 | 1008.0 |
| 20260509162056 | 83 | 142 | 2.0 | 2.0 | 0.00 | 0.00 | 0.00 | 78 | 1008.0 |
| 20260509161556 | 83 | 357 | 1.0 | 2.0 | 0.00 | 0.00 | 0.00 | 79 | 1008.0 |
| 20260509161057 | 83 | 300 | 2.0 | 5.0 | 0.00 | 0.00 | 0.00 | 78 | 1008.0 |
| 20260509160557 | 83 | 273 | 2.0 | 2.0 | 0.00 | 0.00 | 0.00 | 80 | 1008.0 |
| 20260509160057 | 82 | 119 | 2.0 | 2.0 | 0.00 | 0.00 | 0.00 | 81 | 1008.0 |
| 20260509155556 | 82 | 121 | 1.0 | 2.0 | 0.00 | 0.00 | 0.00 | 81 | 1008.0 |
| 20260509155057 | 82 | 66 | 0.0 | 1.0 | 0.00 | 0.00 | 0.00 | 82 | 1008.0 |
| 20260509154605 | 81 | 302 | 1.0 | 3.0 | 0.00 | 0.00 | 0.00 | 84 | 1008.0 |
| 20260509154057 | 80 | 304 | 1.0 | 3.0 | 0.00 | 0.00 | 0.00 | 84 | 1008.0 |
| 20260509153559 | 80 | 77 | 0.0 | 5.0 | 0.00 | 0.00 | 0.00 | 86 | 1007.0 |
| 20260509153056 | 79 | 106 | 3.0 | 3.0 | 0.00 | 0.00 | 0.00 | 87 | 1007.0 |
| 20260509152556 | 79 | 36 | 2.0 | 5.0 | 0.00 | 0.00 | 0.00 | 88 | 1007.0 |
| 20260509152056 | 78 | 131 | 3.0 | 4.0 | 0.00 | 0.00 | 0.00 | 89 | 1007.0 |
| 20260509151556 | 78 | 135 | 2.0 | 8.0 | 0.00 | 0.00 | 0.00 | 89 | 1007.0 |
| 20260509151056 | 78 | 140 | 6.0 | 7.0 | 0.00 | 0.00 | 0.00 | 89 | 1007.0 |
| 20260509150556 | 78 | 81 | 0.0 | 3.0 | 0.00 | 0.00 | 0.00 | 90 | 1008.0 |
| 20260509150056 | 78 | 116 | 3.0 | 5.0 | 0.00 | 0.00 | 0.00 | 89 | 1007.0 |
| 20260509145556 | 78 | 95 | 5.0 | 6.0 | 0.00 | 0.00 | 0.00 | 90 | 1007.0 |
| 20260509145056 | 78 | 110 | 3.0 | 5.0 | 0.00 | 0.00 | 0.00 | 90 | 1007.0 |
| 20260509144556 | 78 | 134 | 3.0 | 8.0 | 0.00 | 0.00 | 0.00 | 90 | 1007.0 |
| 20260509144056 | 78 | 139 | 4.0 | 9.0 | 0.00 | 0.00 | 0.00 | 90 | 1007.0 |
| 20260509143556 | 78 | 127 | 5.0 | 8.0 | 0.00 | 0.00 | 0.00 | 90 | 1008.0 |
| 20260509143057 | 78 | 135 | 2.0 | 5.0 | 0.00 | 0.00 | 0.00 | 90 | 1008.0 |
| 20260509142557 | 78 | 147 | 2.0 | 6.0 | 0.00 | 0.00 | 0.00 | 90 | 1007.0 |
| 20260509142057 | 78 | 123 | 2.0 | 3.0 | 0.00 | 0.00 | 0.00 | 91 | 1007.0 |
| 20260509141558 | 78 | 224 | 2.0 | 4.0 | 0.00 | 0.00 | 0.00 | 91 | 1008.0 |
| 20260509141056 | 78 | 234 | 1.0 | 3.0 | 0.00 | 0.00 | 0.00 | 92 | 1007.0 |
| 20260509140558 | 78 | 29 | 1.0 | 4.0 | 0.00 | 0.00 | 0.00 | 93 | 1007.0 |
| 20260509140057 | 77 | 104 | 2.0 | 4.0 | 0.00 | 0.00 | 0.00 | 94 | 1007.0 |
| 20260509135556 | 77 | 131 | 0.0 | 5.0 | 0.00 | 0.00 | 0.00 | 95 | 1007.0 |
| 20260509135056 | 77 | 248 | 3.0 | 7.0 | 0.00 | 0.00 | 0.00 | 96 | 1007.0 |
| 20260509134556 | 77 | 262 | 5.0 | 9.0 | 0.00 | 0.00 | 0.00 | 97 | 1008.0 |
| 20260509134056 | 76 | 260 | 5.0 | 6.0 | 0.00 | 0.00 | 0.00 | 97 | 1008.0 |
| 20260509133559 | 76 | 265 | 3.0 | 3.0 | 0.00 | 0.00 | 0.00 | 97 | 1007.0 |
| 20260509133057 | 76 | 234 | 2.0 | 2.0 | 0.00 | 0.00 | 0.00 | 98 | 1007.0 |
| 20260509132556 | 76 | 283 | 3.0 | 4.0 | 0.00 | 0.00 | 0.00 | 98 | 1007.0 |
| 20260509132057 | 76 | 239 | 0.0 | 3.0 | 0.00 | 0.00 | 0.00 | 98 | 1008.0 |
| 20260509131557 | 76 | 261 | 1.0 | 5.0 | 0.00 | 0.00 | 0.00 | 98 | 1008.0 |
| 20260509131056 | 76 | 167 | 1.0 | 3.0 | 0.00 | 0.00 | 0.00 | 98 | 1008.0 |
| 20260509130556 | 76 | 177 | 1.0 | 3.0 | 0.00 | 0.00 | 0.00 | 98 | 1008.0 |
| 20260509130056 | 75 | 148 | 2.0 | 3.0 | 0.00 | 0.00 | 0.00 | 98 | 1007.0 |
| 20260509125556 | 75 | 216 | 2.0 | 2.0 | 0.00 | 0.00 | 0.00 | 98 | 1007.0 |
| 20260509125058 | 75 | 124 | 0.0 | 2.0 | 0.00 | 0.00 | 0.00 | 98 | 1007.0 |
| 20260509124556 | 75 | 266 | 0.0 | 1.0 | 0.00 | 0.00 | 0.00 | 98 | 1008.0 |
| 20260509124056 | 75 | 214 | 0.0 | 2.0 | 0.00 | 0.00 | 0.00 | 98 | 1008.0 |
| 20260509123556 | 75 | 131 | 0.0 | 2.0 | 0.00 | 0.00 | 0.00 | 98 | 1008.0 |
| 20260509123056 | 75 | 106 | 2.0 | 2.0 | 0.00 | 0.00 | 0.00 | 98 | 1007.0 |
| 20260509122556 | 75 | 236 | 0.0 | 1.0 | 0.00 | 0.00 | 0.00 | 98 | 1007.0 |
| 20260509122056 | 75 | 230 | 0.0 | 1.0 | 0.00 | 0.00 | 0.00 | 98 | 1007.0 |
| 20260509121556 | 75 | 108 | 2.0 | 3.0 | 0.00 | 0.00 | 0.00 | 98 | 1007.0 |
| 20260509121056 | 75 | 143 | 0.0 | 3.0 | 0.00 | 0.00 | 0.00 | 98 | 1007.0 |
| 20260509120556 | 75 | 88 | 1.0 | 2.0 | 0.00 | 0.00 | 0.00 | 98 | 1007.0 |
| 20260509120056 | 75 | 81 | 0.0 | 2.0 | 0.00 | 0.00 | 0.00 | 98 | 1007.0 |
| 20260509115558 | 75 | 80 | 1.0 | 2.0 | 0.00 | 0.00 | 0.00 | 98 | 1007.0 |
| 20260509115056 | 75 | 354 | 1.0 | 2.0 | 0.00 | 0.00 | 0.00 | 98 | 1007.0 |
| 20260509114557 | 75 | 19 | 2.0 | 3.0 | 0.00 | 0.00 | 0.00 | 98 | 1007.0 |
| 20260509114056 | 75 | 88 | 0.0 | 2.0 | 0.00 | 0.00 | 0.00 | 98 | 1007.0 |
| 20260509113556 | 75 | 7 | 1.0 | 2.0 | 0.00 | 0.00 | 0.00 | 98 | 1007.0 |
| 20260509113056 | 75 | 41 | 0.0 | 2.0 | 0.00 | 0.00 | 0.00 | 98 | 1007.0 |
| 20260509112556 | 75 | 354 | 2.0 | 3.0 | 0.00 | 0.00 | 0.00 | 98 | 1007.0 |
| 20260509112056 | 75 | 106 | 2.0 | 3.0 | 0.00 | 0.00 | 0.00 | 98 | 1007.0 |
| 20260509111558 | 75 | 89 | 0.0 | 2.0 | 0.00 | 0.00 | 0.00 | 98 | 1007.0 |
| 20260509111056 | 75 | 81 | 0.0 | 2.0 | 0.00 | 0.00 | 0.00 | 98 | 1007.0 |
| 20260509110556 | 75 | 232 | 0.0 | 1.0 | 0.00 | 0.00 | 0.00 | 98 | 1007.0 |
| 20260509110056 | 75 | 70 | 0.0 | 3.0 | 0.00 | 0.00 | 0.00 | 98 | 1007.0 |
| 20260509105557 | 75 | 166 | 0.0 | 2.0 | 0.00 | 0.00 | 0.00 | 98 | 1007.0 |
| 20260509105056 | 75 | 326 | 0.0 | 1.0 | 0.00 | 0.00 | 0.00 | 98 | 1007.0 |
| 20260509104557 | 75 | 30 | 1.0 | 1.0 | 0.00 | 0.00 | 0.00 | 98 | 1007.0 |
| 20260509104056 | 75 | 117 | 0.0 | 2.0 | 0.00 | 0.00 | 0.00 | 98 | 1007.0 |
| 20260509103556 | 75 | 16 | 0.0 | 2.0 | 0.00 | 0.00 | 0.00 | 98 | 1007.0 |
| 20260509103056 | 75 | 118 | 0.0 | 2.0 | 0.00 | 0.00 | 0.00 | 98 | 1007.0 |
| 20260509102556 | 75 | 89 | 0.0 | 2.0 | 0.00 | 0.00 | 0.00 | 98 | 1007.0 |
| 20260509102056 | 75 | 224 | 0.0 | 2.0 | 0.00 | 0.00 | 0.00 | 98 | 1007.0 |
| 20260509101556 | 75 | 41 | 1.0 | 2.0 | 0.00 | 0.00 | 0.00 | 98 | 1007.0 |
| 20260509101056 | 75 | 15 | 1.0 | 2.0 | 0.00 | 0.00 | 0.00 | 98 | 1007.0 |
| 20260509100556 | 75 | 49 | 0.0 | 2.0 | 0.00 | 0.00 | 0.00 | 98 | 1007.0 |
| 20260509100056 | 75 | 245 | 1.0 | 2.0 | 0.00 | 0.00 | 0.00 | 98 | 1007.0 |
| 20260509095556 | 75 | 102 | 0.0 | 2.0 | 0.00 | 0.00 | 0.00 | 98 | 1007.0 |
| 20260509095057 | 75 | 41 | 0.0 | 2.0 | 0.00 | 0.00 | 0.00 | 98 | 1007.0 |
| 20260509094557 | 75 | 266 | 0.0 | 1.0 | 0.00 | 0.00 | 0.00 | 98 | 1007.0 |
| 20260509094056 | 75 | 4 | 1.0 | 2.0 | 0.00 | 0.00 | 0.00 | 98 | 1006.0 |
| 20260509093556 | 75 | 185 | 0.0 | 2.0 | 0.00 | 0.00 | 0.00 | 98 | 1007.0 |
| 20260509093056 | 75 | 3 | 0.0 | 2.0 | 0.00 | 0.00 | 0.00 | 98 | 1007.0 |
| 20260509092556 | 75 | 28 | 1.0 | 2.0 | 0.00 | 0.00 | 0.00 | 98 | 1006.0 |
| 20260509092056 | 75 | 297 | 0.0 | 2.0 | 0.00 | 0.00 | 0.00 | 98 | 1007.0 |
| 20260509091556 | 75 | 53 | 0.0 | 2.0 | 0.00 | 0.00 | 0.00 | 98 | 1006.0 |
| 20260509091056 | 75 | 103 | 1.0 | 3.0 | 0.00 | 0.00 | 0.00 | 98 | 1006.0 |
| 20260509090556 | 75 | 96 | 2.0 | 3.0 | 0.00 | 0.00 | 0.00 | 98 | 1006.0 |
| 20260509090056 | 75 | 134 | 1.0 | 3.0 | 0.00 | 0.00 | 0.00 | 98 | 1006.0 |
| 20260509085556 | 75 | 76 | 0.0 | 3.0 | 0.00 | 0.00 | 0.00 | 98 | 1006.0 |
| 20260509085056 | 75 | 75 | 1.0 | 3.0 | 0.00 | 0.00 | 0.00 | 98 | 1006.0 |
| 20260509084557 | 75 | 110 | 3.0 | 3.0 | 0.00 | 0.00 | 0.00 | 97 | 1006.0 |
| 20260509084057 | 75 | 134 | 2.0 | 2.0 | 0.00 | 0.00 | 0.00 | 97 | 1007.0 |
| 20260509083556 | 75 | 62 | 1.0 | 2.0 | 0.00 | 0.00 | 0.00 | 97 | 1006.0 |
| 20260509083056 | 75 | 81 | 1.0 | 3.0 | 0.00 | 0.00 | 0.00 | 97 | 1007.0 |
| 20260509082556 | 75 | 55 | 2.0 | 3.0 | 0.00 | 0.00 | 0.00 | 97 | 1006.0 |
| 20260509082056 | 75 | 132 | 0.0 | 3.0 | 0.00 | 0.00 | 0.00 | 97 | 1006.0 |
| 20260509081556 | 75 | 106 | 2.0 | 3.0 | 0.00 | 0.00 | 0.00 | 97 | 1007.0 |
| 20260509081058 | 75 | 93 | 3.0 | 3.0 | 0.00 | 0.00 | 0.00 | 97 | 1007.0 |
| 20260509080556 | 75 | 83 | 0.0 | 2.0 | 0.00 | 0.00 | 0.00 | 97 | 1007.0 |
| 20260509080056 | 75 | 99 | 1.0 | 2.0 | 0.00 | 0.00 | 0.00 | 97 | 1007.0 |
| 20260509075558 | 75 | 115 | 3.0 | 3.0 | 0.00 | 0.00 | 0.00 | 97 | 1007.0 |
| 20260509075057 | 75 | 17 | 0.0 | 3.0 | 0.00 | 0.00 | 0.00 | 97 | 1007.0 |
| 20260509074556 | 75 | 118 | 1.0 | 3.0 | 0.00 | 0.00 | 0.00 | 97 | 1007.0 |
| 20260509074056 | 75 | 69 | 1.0 | 2.0 | 0.00 | 0.00 | 0.00 | 97 | 1007.0 |
| 20260509073556 | 75 | 114 | 0.0 | 2.0 | 0.00 | 0.00 | 0.00 | 97 | 1007.0 |
| 20260509073056 | 75 | 93 | 1.0 | 3.0 | 0.00 | 0.00 | 0.00 | 97 | 1007.0 |
| 20260509072556 | 75 | 309 | 2.0 | 2.0 | 0.00 | 0.00 | 0.00 | 96 | 1007.0 |
| 20260509072057 | 75 | 126 | 0.0 | 2.0 | 0.00 | 0.00 | 0.00 | 96 | 1007.0 |
| 20260509071557 | 75 | 157 | 1.0 | 2.0 | 0.00 | 0.00 | 0.00 | 96 | 1007.0 |
| 20260509071056 | 75 | 28 | 0.0 | 2.0 | 0.00 | 0.00 | 0.00 | 96 | 1007.0 |
| 20260509070557 | 75 | 0 | 0.0 | 2.0 | 0.00 | 0.00 | 0.00 | 96 | 1007.0 |
| 20260509070056 | 75 | 359 | 0.0 | 2.0 | 0.00 | 0.00 | 0.00 | 96 | 1007.0 |
| 20260509065557 | 75 | 126 | 0.0 | 2.0 | 0.00 | 0.00 | 0.00 | 96 | 1007.0 |
| 20260509065056 | 75 | 137 | 0.0 | 2.0 | 0.00 | 0.00 | 0.00 | 96 | 1007.0 |
| 20260509064556 | 75 | 139 | 0.0 | 3.0 | 0.00 | 0.00 | 0.00 | 96 | 1007.0 |
| 20260509064057 | 75 | 96 | 2.0 | 3.0 | 0.00 | 0.00 | 0.00 | 96 | 1007.0 |
| 20260509063556 | 75 | 111 | 1.0 | 2.0 | 0.00 | 0.00 | 0.00 | 95 | 1007.0 |
| 20260509063056 | 75 | 169 | 0.0 | 3.0 | 0.00 | 0.00 | 0.00 | 95 | 1007.0 |
| 20260509062556 | 75 | 101 | 1.0 | 2.0 | 0.00 | 0.00 | 0.00 | 95 | 1007.0 |
| 20260509062056 | 75 | 140 | 1.0 | 3.0 | 0.00 | 0.00 | 0.00 | 95 | 1007.0 |
| 20260509061557 | 76 | 135 | 0.0 | 2.0 | 0.00 | 0.00 | 0.00 | 95 | 1007.0 |
| 20260509061057 | 76 | 182 | 0.0 | 2.0 | 0.00 | 0.00 | 0.00 | 95 | 1007.0 |
| 20260509060556 | 76 | 118 | 3.0 | 5.0 | 0.00 | 0.00 | 0.00 | 95 | 1007.0 |
| 20260509060056 | 76 | 75 | 3.0 | 5.0 | 0.00 | 0.00 | 0.00 | 95 | 1007.0 |
| 20260509055556 | 76 | 117 | 1.0 | 3.0 | 0.00 | 0.00 | 0.00 | 94 | 1007.0 |
| 20260509055056 | 76 | 166 | 2.0 | 6.0 | 0.00 | 0.00 | 0.00 | 94 | 1007.0 |